When you browse on this site, cookies collect data to enhance your experience and personalize the content and advertising you see.
Visit our Privacy Policy to learn more. By continuing to use the site, you agree to this use of cookies and data.

Hourly Weather Bregenz

Today, 11 July, Saturday

Time Temperature Precipitation Wind Pressure Humidity
00:00 +13°C° 1.6 mm 1 mps 648 mmHg 97%
01:00 +13°C° 0 mm 2 mps 648 mmHg 97%
02:00 +12°C° 3.2 mm 2 mps 648 mmHg 97%
03:00 +10°C° 3.2 mm 2 mps 647 mmHg 97%
04:00 +9°C° 3.2 mm 2 mps 647 mmHg 97%
05:00 +10°C° 2 mm 1 mps 647 mmHg 97%
06:00 +10°C° 2 mm 1 mps 648 mmHg 97%
07:00 +10°C° 2 mm 1 mps 648 mmHg 96%
08:00 +10°C° 0.8 mm 1 mps 648 mmHg 95%
09:00 +10°C° 0.8 mm 0 mps 649 mmHg 94%
10:00 +10°C° 0.8 mm 0 mps 649 mmHg 94%
11:00 +12°C° 0.6 mm 1 mps 649 mmHg 91%
12:00 +13°C° 0.6 mm 1 mps 650 mmHg 89%
13:00 +14°C° 0.6 mm 2 mps 650 mmHg 86%
14:00 +14°C° 0.7 mm 2 mps 650 mmHg 87%
15:00 +13°C° 0.7 mm 2 mps 650 mmHg 87%
16:00 +13°C° 0.7 mm 2 mps 650 mmHg 87%
17:00 +13°C° 0.4 mm 2 mps 650 mmHg 89%
18:00 +12°C° 0.4 mm 1 mps 650 mmHg 90%
19:00 +12°C° 0.4 mm 1 mps 650 mmHg 92%
20:00 +11°C° 0.1 mm 1 mps 650 mmHg 93%
21:00 +9°C° 0.1 mm 1 mps 650 mmHg 94%
22:00 +8°C° 0.1 mm 1 mps 650 mmHg 95%
23:00 +8°C° 0 mm 1 mps 650 mmHg 95%

Tomorrow, 12 July, Sunday

Time Temperature Precipitation Wind Pressure Humidity
00:00 +8°C° 0 mm 1 mps 650 mmHg 95%
01:00 +7°C° 0 mm 1 mps 650 mmHg 95%
02:00 +7°C° 0 mm 1 mps 650 mmHg 94%
03:00 +7°C° 0 mm 1 mps 650 mmHg 94%
04:00 +5°C° 0 mm 0 mps 649 mmHg 94%
05:00 +6°C° 0 mm 0 mps 650 mmHg 93%
06:00 +7°C° 0 mm 0 mps 650 mmHg 91%
07:00 +8°C° 0 mm 0 mps 651 mmHg 90%
08:00 +11°C° 0 mm 1 mps 651 mmHg 81%
09:00 +13°C° 0 mm 1 mps 652 mmHg 72%
10:00 +15°C° 0 mm 2 mps 652 mmHg 63%
11:00 +16°C° 0 mm 2 mps 652 mmHg 59%
12:00 +17°C° 0 mm 2 mps 653 mmHg 56%
13:00 +18°C° 0 mm 3 mps 653 mmHg 52%
14:00 +17°C° 0 mm 3 mps 653 mmHg 54%
15:00 +17°C° 0 mm 3 mps 652 mmHg 55%
16:00 +17°C° 0 mm 4 mps 652 mmHg 57%
17:00 +16°C° 0 mm 3 mps 652 mmHg 63%
18:00 +14°C° 0 mm 3 mps 652 mmHg 69%
19:00 +14°C° 0 mm 2 mps 651 mmHg 75%
20:00 +12°C° 0 mm 2 mps 651 mmHg 80%
21:00 +10°C° 0 mm 1 mps 651 mmHg 86%
22:00 +9°C° 0 mm 1 mps 650 mmHg 91%
23:00 +8°C° 0 mm 1 mps 650 mmHg 92%

Day after tomorrow, 13 July, Monday

Time Temperature Precipitation Wind Pressure Humidity
00:00 +8°C° 0 mm 1 mps 650 mmHg 92%
01:00 +8°C° 0 mm 1 mps 650 mmHg 93%
02:00 +8°C° 0 mm 1 mps 649 mmHg 93%
03:00 +8°C° 0 mm 1 mps 649 mmHg 93%
04:00 +7°C° 0 mm 1 mps 649 mmHg 94%
05:00 +9°C° 0 mm 1 mps 649 mmHg 90%
06:00 +9°C° 0 mm 0 mps 650 mmHg 86%
07:00 +10°C° 0 mm 0 mps 650 mmHg 82%
08:00 +13°C° 0 mm 1 mps 650 mmHg 77%
09:00 +15°C° 0 mm 1 mps 651 mmHg 71%
10:00 +16°C° 0 mm 1 mps 651 mmHg 66%
11:00 +18°C° 0.1 mm 1 mps 651 mmHg 65%
12:00 +17°C° 0.1 mm 2 mps 651 mmHg 64%
13:00 +18°C° 0.1 mm 2 mps 651 mmHg 63%
14:00 +18°C° 0.2 mm 2 mps 651 mmHg 63%
15:00 +18°C° 0.2 mm 2 mps 650 mmHg 64%
16:00 +18°C° 0.2 mm 2 mps 650 mmHg 64%
17:00 +17°C° 0.2 mm 2 mps 650 mmHg 70%
18:00 +16°C° 0.2 mm 2 mps 649 mmHg 76%
19:00 +15°C° 0.2 mm 1 mps 649 mmHg 82%
20:00 +13°C° 0 mm 1 mps 649 mmHg 86%
21:00 +12°C° 0 mm 1 mps 648 mmHg 89%
22:00 +10°C° 0 mm 1 mps 648 mmHg 92%
23:00 +10°C° 0 mm 1 mps 648 mmHg 92%

14 July, Tuesday

Time Temperature Precipitation Wind Pressure Humidity
00:00 +9°C° 0 mm 1 mps 647 mmHg 93%
01:00 +9°C° 0 mm 1 mps 647 mmHg 93%
02:00 +9°C° 0 mm 1 mps 647 mmHg 93%
03:00 +8°C° 0 mm 1 mps 647 mmHg 93%
04:00 +8°C° 0 mm 1 mps 646 mmHg 93%
05:00 +9°C° 0 mm 1 mps 647 mmHg 91%
06:00 +9°C° 0 mm 0 mps 647 mmHg 88%
07:00 +11°C° 0 mm 0 mps 647 mmHg 86%
08:00 +13°C° 0 mm 1 mps 648 mmHg 79%
09:00 +15°C° 0 mm 1 mps 648 mmHg 72%
10:00 +16°C° 0 mm 1 mps 648 mmHg 65%
11:00 +18°C° 0.1 mm 1 mps 648 mmHg 63%
12:00 +17°C° 0.1 mm 2 mps 648 mmHg 62%
13:00 +18°C° 0.1 mm 2 mps 648 mmHg 61%
14:00 +18°C° 0.5 mm 2 mps 648 mmHg 63%
15:00 +19°C° 0.5 mm 1 mps 648 mmHg 65%
16:00 +18°C° 0.5 mm 1 mps 648 mmHg 66%
17:00 +16°C° 0.7 mm 1 mps 647 mmHg 74%
18:00 +15°C° 0.7 mm 1 mps 647 mmHg 81%
19:00 +13°C° 0.7 mm 1 mps 647 mmHg 88%
20:00 +12°C° 0.7 mm 1 mps 647 mmHg 89%
21:00 +12°C° 0.7 mm 1 mps 647 mmHg 90%
22:00 +11°C° 0.7 mm 1 mps 647 mmHg 92%
23:00 +10°C° 0.1 mm 1 mps 647 mmHg 92%

15 July, Wednesday

Time Temperature Precipitation Wind Pressure Humidity
00:00 +10°C° 0.1 mm 1 mps 647 mmHg 92%
01:00 +9°C° 0.1 mm 1 mps 646 mmHg 92%
02:00 +9°C° 0 mm 1 mps 646 mmHg 93%
03:00 +8°C° 0 mm 1 mps 646 mmHg 93%
04:00 +8°C° 0 mm 1 mps 645 mmHg 93%
05:00 +9°C° 0 mm 1 mps 646 mmHg 92%
06:00 +10°C° 0 mm 1 mps 647 mmHg 91%
07:00 +11°C° 0 mm 1 mps 647 mmHg 90%
08:00 +13°C° 0.1 mm 1 mps 647 mmHg 84%
09:00 +14°C° 0.1 mm 1 mps 648 mmHg 77%
10:00 +16°C° 0.1 mm 2 mps 648 mmHg 71%
11:00 +16°C° 0.2 mm 2 mps 648 mmHg 67%
12:00 +17°C° 0.2 mm 2 mps 648 mmHg 64%
13:00 +18°C° 0.2 mm 3 mps 648 mmHg 60%
14:00 +18°C° 0.1 mm 3 mps 648 mmHg 61%
15:00 +18°C° 0.1 mm 3 mps 648 mmHg 62%
16:00 +18°C° 0.1 mm 3 mps 648 mmHg 63%
17:00 +16°C° 0.3 mm 3 mps 648 mmHg 71%
18:00 +15°C° 0.3 mm 2 mps 648 mmHg 80%
19:00 +14°C° 0.3 mm 2 mps 648 mmHg 88%
20:00 +13°C° 0.3 mm 2 mps 648 mmHg 91%
21:00 +12°C° 0.3 mm 2 mps 648 mmHg 93%
22:00 +11°C° 0.3 mm 1 mps 648 mmHg 95%
23:00 +11°C° 0.4 mm 1 mps 648 mmHg 95%

16 July, Thursday

Time Temperature Precipitation Wind Pressure Humidity
00:00 +11°C° 0.4 mm 1 mps 648 mmHg 95%
01:00 +11°C° 0.4 mm 1 mps 648 mmHg 95%
02:00 +10°C° 0.2 mm 1 mps 648 mmHg 95%
03:00 +10°C° 0.2 mm 1 mps 648 mmHg 94%
04:00 +10°C° 0.2 mm 1 mps 647 mmHg 94%
05:00 +10°C° 0 mm 1 mps 648 mmHg 93%
06:00 +10°C° 0 mm 1 mps 648 mmHg 93%
07:00 +10°C° 0 mm 1 mps 648 mmHg 93%
08:00 +11°C° 0 mm 1 mps 648 mmHg 90%
09:00 +12°C° 0 mm 1 mps 648 mmHg 86%
10:00 +12°C° 0 mm 1 mps 649 mmHg 83%
11:00 +13°C° 0.1 mm 1 mps 649 mmHg 77%
12:00 +15°C° 0.1 mm 1 mps 649 mmHg 70%
13:00 +16°C° 0.1 mm 2 mps 649 mmHg 64%
14:00 +16°C° 0.1 mm 2 mps 649 mmHg 64%
15:00 +16°C° 0.1 mm 2 mps 649 mmHg 65%
16:00 +16°C° 0.1 mm 2 mps 649 mmHg 65%
17:00 +15°C° 0.1 mm 2 mps 649 mmHg 71%
18:00 +15°C° 0.1 mm 1 mps 649 mmHg 76%
19:00 +14°C° 0.1 mm 1 mps 648 mmHg 82%
20:00 +12°C° 0.1 mm 1 mps 648 mmHg 85%
21:00 +11°C° 0.1 mm 1 mps 648 mmHg 87%
22:00 +9°C° 0.1 mm 0 mps 648 mmHg 90%
23:00 +9°C° 0 mm 0 mps 648 mmHg 91%
Show more